Location: Central Coast
(33.3208°S, 151.2336°E)
Time: 10:54:12
(UTC+10:00)

Tiangong 2 - Visible Passes

Search period start: 18 August 2018 00:00
Search period end: 28 August 2018 00:00
Orbit: 384 x 395 km, 42.8° (Epoch: 17 August)

Date Brightness Start Highest point End Pass type
(mag) Time Alt. Az. Time Alt. Az. Time Alt. Az.
18 Aug 3.4 18:22:36 10° SW 18:24:37 15° S 18:26:05 12° SSE visible
19 Aug 3.2 19:01:34 10° SW 19:03:21 19° S 19:03:21 19° S visible
20 Aug 3.2 18:03:47 10° SW 18:06:02 17° S 18:08:16 10° SE visible
20 Aug 4.3 19:40:14 10° SW 19:40:39 13° SW 19:40:39 13° SW visible
21 Aug 2.2 18:42:29 10° SW 18:45:25 30° SSE 18:45:42 30° SSE visible
22 Aug 2.8 19:21:16 10° WSW 19:23:10 32° WSW 19:23:10 32° WSW visible
23 Aug 1.3 18:23:24 10° SW 18:26:36 53° SSE 18:28:24 22° E visible
24 Aug 2.4 19:02:29 10° WSW 19:05:29 35° NW 19:06:08 31° N visible
25 Aug 1.3 18:04:25 10° WSW 18:07:40 73° NNW 18:10:52 10° NE visible
26 Aug 3.9 18:44:13 10° W 18:46:21 17° NW 18:48:28 10° N visible
